Regional Weather Roundup
Issued by NWS

Home | Current Version | Previous Version | Text Only | Print | Product List | Glossary On
Versions: 1 2 3 4 5 6 7 8 9 10 11 12 13 14 15 16 17 18 19 20 21 22 23 24 25 26 27 28 29 30 31 32 33 34 35 36 37 38 39 40 41 42 43 44 45 46 47 48 49 50
000
ASMX46 KSGX 301911
RWRMX

MEXICAN WEATHER ROUNDUP
NATIONAL WEATHER SERVICE SAN DIEGO CA
1200 PM PDT SAT MAY 30 2015

BAJA CALIFORNIA

CITY           SKY/WX    TMP DP  RH WIND       PRES   REMARKS
ENSENADA NW      N/A     62  32  32 S1        29.98F
LA PAZ         SUNNY     93  50  22 N12       29.88
LORETO         SUNNY     88  77  70 NE9       29.88S HX 100
MEXICALI       MOSUNNY   93  39  15 SE9       29.89
S.J. DEL CABO  SUNNY     90  64  43 S17       29.87F
TIJUANA        PTSUNNY   66  54  63 W9        30.01S FOG

NORTHWESTERN MEXICO

CITY           SKY/WX    TMP DP  RH WIND       PRES   REMARKS
CHIHUAHUA      PTSUNNY   88  46  23 E15       30.11
CULIACAN       SUNNY     97  64  34 SW9       29.83  HX  99
GUAYMAS        SUNNY     93  63  36 S12       29.83
HERMOSILLO     SUNNY    100  43  14 S6        29.92  HX  96
JUAREZ         MOSUNNY   84  54  34 SE17      30.11
LOS MOCHIS     SUNNY     91  59  33 SW14      29.86F
OBREGON        SUNNY     99  50  19 W10       29.83  HX  95

NORTHEASTERN MEXICO

CITY           SKY/WX    TMP DP  RH WIND       PRES   REMARKS
MATAMOROS      PTSUNNY   86  77  74 SE17      30.01  HX  97
MONCLOVA         N/A    N/A N/A N/A MISG        N/A
MONTERREY      PTSUNNY   84  68  58 SE10      29.98F
NUEVO LAREDO   PTSUNNY   90  70  51 CALM      30.00  HX  95
PIEDRAS NEGRAS CLOUDY    64  64 100 NE12      30.12F
REYNOSA        MOSUNNY   86  72  62 SE8       29.96
SALTILLO       MOSUNNY   81  63  54 N9        30.19F
TORREON        MOSUNNY   90  54  29 SE7       30.05F
VICTORIA       CLOUDY    86  68  54 SE6       29.99

WESTERN MEXICO

CITY           SKY/WX    TMP DP  RH WIND       PRES   REMARKS
AGUASCALIENTES PTSUNNY   66  50  55 NE6       30.27
COLIMA         PTSUNNY   81  70  69 SW12      30.00F
DURANGO        SUNNY     79  41  25 S6        30.20
GUADALAJARA    CLOUDY    73  55  53 E5        30.17
MANZANILLO     PTSUNNY   84  77  79 S12       29.85S
MAZATLAN       SUNNY     90  64  43 W18       29.81F
PTO. VALLARTA  CLOUDY    86  66  51 SW6       29.86F
TEPIC          CLOUDY    88  59  37 W3        29.99
URUAPAN        CLOUDY    70  63  78 S9        30.17F
ZACATECAS      PTSUNNY   72  52  49 NE20      30.28F

CENTRAL MEXICO

CITY           SKY/WX    TMP DP  RH WIND       PRES   REMARKS
CUERNAVACA     CLOUDY    79  52  38 SE7       30.13F
LEON           CLOUDY    72  57  60 S3        30.28F
MEXICO CITY    CLOUDY    70  48  46 N7        30.28F
MORELIA        PTSUNNY   72  55  56 CALM      30.21
POZA RICA      CLOUDY    81  79  94 E7        29.99F
PUEBLA         CLOUDY    68  48  49 S5        30.31F
QUERETARO      PTSUNNY   73  52  46 NE9       30.28F
S. LUIS POTOSI CLOUDY    70  48  46 NE8       30.25F
TAMPICO        PTSUNNY   86  66  51 SE9       29.98F
TOLUCA         TSTM      52  46  82 SE18      30.36  VSB 1
VERACRUZ       MOSUNNY   88  70  55 E10       29.92F

SOUTHERN MEXICO

CITY           SKY/WX    TMP DP  RH WIND       PRES   REMARKS
ACAPULCO       CLOUDY    84  75  74 SE9       29.89F
B. DE HUATULCO MOSUNNY   82  72  69 CALM      29.94
MINATITLAN     MOSUNNY   86  68  54 N12       29.87F
OAXACA         CLOUDY    77  52  41 NE7       30.17F
PTO. ESCONDIDO CLOUDY    79  75  89 W9        30.02S
TAPACHULA      CLOUDY    88  77  70 W12       29.88F HX 100
TUX. GUTIERREZ CLOUDY    88  61  40 NE7       29.92F
VILLAHERMOSA   PTSUNNY   95  73  49 CALM      29.90F HX 105
ZIHUATANEJO    PTSUNNY   90  75  62 SW8       29.88F HX 100

YUCATAN PENINSULA

CITY           SKY/WX    TMP DP  RH WIND       PRES   REMARKS
CAMPECHE       MOSUNNY   95  63  34 SE9       29.87F HX  96
CANCUN         MOSUNNY   86  72  62 SE7       29.97S
CHETUMAL       PTSUNNY   86  75  70 E20       29.93F HX  95
C. DEL CARMEN  CLOUDY    90  70  51 E7        29.89F HX  95
COZUMEL        MOSUNNY   84  70  61 CALM      29.95F
MERIDA         PTSUNNY   99  66  34 E8        29.91F HX 102

$$



USA.gov is the U.S. government's official web portal to all federal, state and local government web resources and services.